Location: Ciula Mare
(45.6000°N, 22.8167°E)
Time: 05:01:27
(UTC+00:00)

Cosmos 2227 - Pass Details

Date: 03 February 2023
Orbit: 833 x 862 km, 71.0° (Epoch: 29 March)

Event Time Altitude Azimuth Distance (km) Brightness Sun altitude
Rises 16:11:14 0° 333° (NNW) 3,449 7.5 -6.4°
Reaches altitude 10° 16:13:42 10° 334° (NNW) 2,510 6.8 -6.8°
Maximum altitude 16:19:30 89° 62° (ENE) 869 4.3 -7.8°
Drops below altitude 10° 16:25:16 10° 155° (SSE) 2,492 6.6 -8.7°
Sets 16:27:42 0° 156° (SSE) 3,422 7.3 -9.1°
